FW9975 Weather Reports


Display with metric or nautical units.
time (UTC)temp
F
wind
direction
speed
MPH
gust
MPH
rain 1hr
in
rain 24hr
in
rain mn
in
humidity
%
barometer
mb
20260507144008 55 308 0.0 2.0 0.00 0.00 0.00 42 1013.0
20260507143505 54 296 0.0 3.0 0.00 0.00 0.00 45 1013.0
20260507143002 54 342 2.0 3.0 0.00 0.00 0.00 42 1013.1
20260507142458 55 337 3.0 3.0 0.00 0.00 0.00 42 1013.0
20260507141955 54 330 3.0 5.0 0.00 0.00 0.00 42 1012.9
20260507141451 55 332 3.0 3.0 0.00 0.00 0.00 43 1013.1
20260507140948 53 320 1.0 3.0 0.00 0.00 0.00 43 1013.1
20260507140444 54 344 3.0 6.0 0.00 0.00 0.00 43 1013.1
20260507135942 53 300 0.0 2.0 0.00 0.00 0.00 48 1013.3
20260507135438 53 329 1.0 6.0 0.00 0.00 0.00 42 1013.3
20260507134936 53 314 3.0 3.0 0.00 0.00 0.00 43 1013.1
20260507134433 53 304 2.0 3.0 0.00 0.00 0.00 45 1013.1
20260507133929 53 332 2.0 2.0 0.00 0.00 0.00 47 1013.3
20260507133425 52 281 0.0 3.0 0.00 0.00 0.00 49 1013.2
20260507132923 53 335 3.0 6.0 0.00 0.00 0.00 47 1013.4
20260507132419 52 344 1.0 2.0 0.00 0.00 0.00 51 1013.3
20260507131916 52 329 1.0 6.0 0.00 0.00 0.00 51 1013.1
20260507131413 51 314 2.0 3.0 0.00 0.00 0.00 54 1013.3
20260507130910 51 305 1.0 3.0 0.00 0.00 0.00 55 1013.1
20260507130407 51 306 3.0 3.0 0.00 0.00 0.00 55 1013.4
20260507125906 51 317 2.0 3.0 0.00 0.00 0.00 56 1013.2
20260507125403 51 299 2.0 3.0 0.00 0.00 0.00 57 1013.0
20260507124900 50 312 2.0 3.0 0.00 0.00 0.00 59 1013.3
20260507124356 51 321 1.0 2.0 0.00 0.00 0.00 60 1013.4
20260507123855 51 310 1.0 1.0 0.00 0.00 0.00 61 1013.4
20260507123351 50 299 0.0 1.0 0.00 0.00 0.00 63 1013.5
20260507122848 49 288 0.0 5.0 0.00 0.00 0.00 65 1013.2
20260507122343 49 301 2.0 2.0 0.00 0.00 0.00 64 1013.2
20260507121840 48 289 0.0 5.0 0.00 0.00 0.00 66 1013.5
20260507121335 48 311 1.0 1.0 0.00 0.00 0.00 68 1013.4
20260507120832 47 293 1.0 1.0 0.00 0.00 0.00 75 1013.3
20260507120328 46 308 0.0 2.0 0.00 0.00 0.00 83 1013.3
20260507115825 44 309 0.0 2.0 0.00 0.00 0.00 91 1013.2
20260507115320 43 304 0.0 1.0 0.00 0.00 0.00 95 1013.7
20260507114816 42 306 0.0 2.0 0.00 0.00 0.00 96 1013.2
20260507114314 43 310 0.0 2.0 0.00 0.00 0.00 96 1013.4
20260507113811 43 308 0.0 0.0 0.00 0.00 0.00 97 1013.5
20260507113308 42 308 0.0 0.0 0.00 0.00 0.00 97 1013.2
20260507112806 42 308 0.0 0.0 0.00 0.00 0.00 97 1013.4
20260507112306 42 308 0.0 0.0 0.00 0.00 0.00 97 1013.2
20260507111800 41 308 0.0 0.0 0.00 0.00 0.00 97 1013.3
20260507111256 41 308 0.0 0.0 0.00 0.00 0.00 97 1013.2
20260507110752 41 308 0.0 0.0 0.00 0.00 0.00 97 1013.0
20260507110249 40 308 0.0 0.0 0.00 0.00 0.00 97 1013.1
20260507105746 40 308 0.0 0.0 0.00 0.00 0.00 97 1012.8
20260507105242 40 308 0.0 0.0 0.00 0.00 0.00 97 1012.6
20260507104740 40 308 0.0 0.0 0.00 0.00 0.00 97 1012.9
20260507104236 40 308 0.0 0.0 0.00 0.00 0.00 97 1012.8
20260507103732 40 308 0.0 0.0 0.00 0.00 0.00 97 1012.8
20260507103229 40 308 0.0 0.0 0.00 0.00 0.00 97 1012.8
20260507102725 40 308 0.0 0.0 0.00 0.00 0.00 97 1012.7
20260507102221 40 308 0.0 0.0 0.00 0.00 0.00 97 1012.7
20260507101718 40 308 0.0 0.0 0.00 0.00 0.00 97 1012.6
20260507101213 40 308 0.0 0.0 0.00 0.00 0.00 97 1012.8
20260507100710 41 308 0.0 0.0 0.00 0.00 0.00 97 1012.8
20260507100209 40 308 0.0 0.0 0.00 0.00 0.00 96 1012.7
20260507095707 40 308 0.0 0.0 0.00 0.00 0.00 97 1012.7
20260507095203 40 308 0.0 0.0 0.00 0.00 0.00 96 1012.5
20260507094700 40 308 0.0 0.0 0.00 0.00 0.00 96 1012.7
20260507094156 40 308 0.0 0.0 0.00 0.00 0.00 96 1012.8
20260507093653 40 308 0.0 0.0 0.00 0.00 0.00 96 1012.5
20260507093152 41 308 0.0 0.0 0.00 0.00 0.00 96 1012.5
20260507092649 41 308 0.0 0.0 0.00 0.00 0.00 96 1012.4
20260507092145 41 308 0.0 0.0 0.00 0.00 0.00 96 1012.4
20260507091642 41 308 0.0 0.0 0.00 0.00 0.00 96 1012.5
20260507091138 41 308 0.0 0.0 0.00 0.00 0.00 96 1012.5
20260507090634 41 308 0.0 0.0 0.00 0.00 0.00 96 1012.5
20260507090131 41 308 0.0 0.0 0.00 0.00 0.00 96 1012.6
20260507085628 41 308 0.0 0.0 0.00 0.00 0.00 96 1012.5
20260507085125 41 308 0.0 0.0 0.00 0.00 0.00 96 1012.4
20260507084621 41 308 0.0 0.0 0.00 0.00 0.00 96 1012.3
20260507084118 42 308 0.0 0.0 0.00 0.00 0.00 96 1012.3
20260507083615 42 308 0.0 0.0 0.00 0.00 0.00 95 1012.3
20260507083112 42 308 0.0 0.0 0.00 0.00 0.00 95 1012.3
20260507082608 42 308 0.0 0.0 0.00 0.00 0.00 95 1012.0
20260507082104 42 308 0.0 0.0 0.00 0.00 0.00 95 1012.0
20260507081600 42 308 0.0 0.0 0.00 0.00 0.00 95 1012.2
20260507081058 42 308 0.0 0.0 0.00 0.00 0.00 95 1012.2
20260507080554 42 308 0.0 0.0 0.00 0.00 0.00 95 1012.1
20260507080050 42 308 0.0 0.0 0.00 0.00 0.00 95 1012.2
20260507075545 42 308 0.0 0.0 0.00 0.00 0.00 95 1011.9
20260507075042 42 308 0.0 0.0 0.00 0.00 0.00 95 1012.2
20260507074538 42 308 0.0 0.0 0.00 0.00 0.00 95 1012.0
20260507074037 42 308 0.0 0.0 0.00 0.00 0.00 95 1012.0
20260507073533 43 308 0.0 0.0 0.00 0.00 0.00 95 1012.0
20260507073030 43 308 0.0 0.0 0.00 0.00 0.00 95 1012.0
20260507072527 43 308 0.0 0.0 0.00 0.00 0.00 94 1012.0
20260507072024 43 308 0.0 0.0 0.00 0.00 0.00 94 1012.1
20260507071522 43 308 0.0 0.0 0.00 0.00 0.00 94 1011.8
20260507071018 43 308 0.0 0.0 0.00 0.00 0.00 94 1012.0
20260507070515 43 308 0.0 0.0 0.00 0.00 0.00 94 1011.9
20260507070013 43 308 0.0 0.0 0.00 0.00 0.00 94 1012.0
20260507065508 43 308 0.0 0.0 0.00 0.00 0.00 94 1012.0
20260507065006 43 308 0.0 0.0 0.00 0.00 0.00 94 1012.0
20260507064504 43 308 0.0 0.0 0.00 0.00 0.00 93 1012.0
20260507064002 43 308 0.0 0.0 0.00 0.00 0.00 93 1012.1
20260507063458 43 308 0.0 0.0 0.00 0.00 0.00 93 1012.2
20260507062956 44 308 0.0 0.0 0.00 0.00 0.00 93 1012.4
20260507062452 44 308 0.0 0.0 0.00 0.00 0.00 93 1012.4
20260507061950 44 308 0.0 0.0 0.00 0.00 0.00 93 1012.1
20260507061448 44 308 0.0 0.0 0.00 0.00 0.00 92 1012.1
20260507060946 44 308 0.0 0.0 0.00 0.00 0.00 92 1012.1
20260507060442 44 308 0.0 0.0 0.00 0.00 0.00 92 1012.1
20260507055939 44 308 0.0 0.0 0.00 0.00 0.00 92 1012.2
20260507055434 44 308 0.0 0.0 0.00 0.00 0.00 92 1012.0
20260507054931 44 308 0.0 0.0 0.00 0.00 0.00 91 1012.1
20260507054427 44 308 0.0 0.0 0.00 0.00 0.00 91 1012.3
20260507053925 45 308 0.0 0.0 0.00 0.00 0.00 91 1012.1
20260507053422 45 308 0.0 0.0 0.00 0.00 0.00 91 1012.2
20260507052921 45 308 0.0 0.0 0.00 0.00 0.00 91 1012.3
20260507052418 45 308 0.0 0.0 0.00 0.00 0.00 90 1012.2
20260507051915 45 308 0.0 0.0 0.00 0.00 0.00 90 1012.0
20260507051413 45 308 0.0 0.0 0.00 0.00 0.00 89 1012.1
20260507050909 46 308 0.0 0.0 0.00 0.00 0.00 89 1012.1
20260507050406 45 308 0.0 0.0 0.00 0.00 0.00 89 1012.3
20260507045903 46 308 0.0 0.0 0.00 0.00 0.00 89 1012.1
20260507045359 46 308 0.0 0.0 0.00 0.00 0.00 88 1012.2
20260507044856 46 308 0.0 0.0 0.00 0.00 0.00 88 1012.3
20260507044353 46 308 0.0 0.0 0.00 0.00 0.00 87 1012.3
20260507043849 46 308 0.0 0.0 0.00 0.00 0.00 87 1012.2
20260507043346 46 308 0.0 0.0 0.00 0.00 0.00 87 1012.4
20260507042842 46 308 0.0 0.0 0.00 0.00 0.00 87 1012.2
20260507042338 46 308 0.0 0.0 0.00 0.00 0.00 87 1012.3
20260507041835 46 308 0.0 0.0 0.00 0.00 0.00 86 1012.0
20260507041331 47 308 0.0 0.0 0.00 0.00 0.00 86 1012.1
20260507040829 47 308 0.0 0.0 0.00 0.00 0.00 85 1012.3
20260507040325 47 308 0.0 0.0 0.00 0.00 0.00 85 1012.3
20260507035821 47 308 0.0 0.0 0.00 0.40 0.40 85 1012.2
20260507035316 47 308 0.0 0.0 0.00 0.40 0.40 84 1012.0
20260507034814 47 308 0.0 0.0 0.00 0.40 0.40 84 1012.2
20260507034311 47 308 0.0 0.0 0.00 0.40 0.40 84 1012.1
20260507033809 48 308 0.0 0.0 0.00 0.40 0.40 84 1012.1
20260507033306 48 308 0.0 0.0 0.00 0.40 0.40 83 1012.0
20260507032803 48 308 0.0 0.0 0.00 0.40 0.40 82 1012.0
20260507032259 49 308 0.0 0.0 0.00 0.40 0.40 81 1012.0
20260507031756 49 308 0.0 0.0 0.00 0.40 0.40 79 1012.2
20260507031253 49 308 0.0 0.0 0.00 0.40 0.40 79 1012.1
20260507030749 49 308 0.0 0.0 0.00 0.40 0.40 78 1012.3
20260507030247 49 308 0.0 0.0 0.00 0.40 0.40 78 1012.1
20260507025744 50 308 0.0 0.0 0.00 0.40 0.40 78 1012.1
20260507025241 50 308 0.0 0.0 0.00 0.40 0.40 78 1012.3
20260507024739 50 308 0.0 0.0 0.00 0.40 0.40 76 1012.2
20260507024236 50 308 0.0 0.0 0.00 0.40 0.40 75 1012.0
20260507023732 50 308 0.0 0.0 0.00 0.40 0.40 74 1011.8
20260507023229 51 308 0.0 0.0 0.00 0.40 0.40 74 1012.0
20260507022726 51 308 0.0 0.0 0.00 0.40 0.40 74 1012.0
20260507022222 51 308 0.0 0.0 0.00 0.40 0.40 72 1011.8
20260507021719 51 308 0.0 0.0 0.00 0.40 0.40 70 1011.8
20260507021214 52 308 0.0 0.0 0.00 0.40 0.40 70 1012.0
20260507020713 52 308 0.0 0.0 0.00 0.40 0.40 69 1011.9
20260507020208 52 308 0.0 0.0 0.00 0.40 0.40 68 1011.8
20260507015707 53 308 0.0 0.0 0.00 0.40 0.40 66 1011.8
20260507015204 53 308 0.0 0.0 0.00 0.40 0.40 65 1011.6
20260507014700 53 308 0.0 0.0 0.00 0.40 0.40 64 1011.8
20260507014156 54 308 0.0 0.0 0.00 0.40 0.40 63 1011.8
20260507013653 54 308 0.0 0.0 0.00 0.40 0.40 62 1011.7
20260507013150 55 308 0.0 0.0 0.00 0.40 0.40 62 1011.5
20260507012648 55 308 0.0 0.0 0.00 0.40 0.40 61 1011.4
20260507012143 55 308 0.0 1.0 0.00 0.40 0.40 59 1011.5
20260507011641 55 308 0.0 1.0 0.00 0.40 0.40 59 1011.3
20260507011137 55 308 0.0 0.0 0.00 0.40 0.40 59 1011.1
20260507010632 56 308 0.0 1.0 0.00 0.40 0.40 58 1011.2
20260507010128 56 308 0.0 0.0 0.00 0.40 0.40 57 1011.2
20260507005626 56 308 0.0 1.0 0.00 0.40 0.40 58 1011.2
20260507005122 56 308 1.0 1.0 0.00 0.40 0.40 57 1011.1
20260507004619 56 311 0.0 2.0 0.00 0.40 0.40 57 1011.2
20260507004116 56 310 0.0 1.0 0.00 0.40 0.40 57 1011.2
20260507003612 57 310 0.0 2.0 0.00 0.40 0.40 58 1011.3
20260507003107 57 308 1.0 3.0 0.00 0.40 0.40 56 1011.1
20260507002604 57 315 1.0 3.0 0.00 0.40 0.40 56 1011.1
20260507002059 57 315 1.0 2.0 0.00 0.40 0.40 56 1011.1
20260507001557 57 324 2.0 3.0 0.00 0.40 0.40 55 1011.1
20260507001054 57 315 2.0 3.0 0.00 0.40 0.40 54 1011.1
20260507000550 57 322 2.0 3.0 0.00 0.40 0.40 54 1010.9
20260507000046 58 331 2.0 7.0 0.00 0.40 0.40 53 1010.9
20260506235544 58 322 1.0 5.0 0.00 0.40 0.40 52 1010.8
20260506235038 58 305 1.0 3.0 0.00 0.40 0.40 52 1010.9
20260506234536 58 282 0.0 6.0 0.00 0.40 0.40 52 1010.8
20260506234033 58 328 3.0 5.0 0.00 0.40 0.40 51 1010.5
20260506233530 58 330 2.0 6.0 0.00 0.40 0.40 52 1010.4
20260506233027 58 309 1.0 2.0 0.00 0.40 0.40 52 1010.7
20260506232523 58 338 1.0 5.0 0.00 0.40 0.40 51 1010.5
20260506232019 59 319 4.0 6.0 0.00 0.40 0.40 51 1010.6
20260506231517 59 317 2.0 6.0 0.00 0.40 0.40 51 1010.1
20260506231014 59 302 0.0 3.0 0.00 0.40 0.40 51 1010.2
20260506230510 59 325 3.0 3.0 0.00 0.40 0.40 52 1010.0
20260506230008 59 333 3.0 5.0 0.00 0.40 0.40 52 1010.4
20260506225504 59 313 0.0 2.0 0.00 0.40 0.40 54 1010.3
20260506225001 59 331 1.0 2.0 0.00 0.40 0.40 53 1010.5
20260506224458 59 285 1.0 3.0 0.00 0.40 0.40 51 1010.2
20260506223954 59 340 3.0 3.0 0.00 0.40 0.40 52 1010.3
20260506223450 59 17 3.0 3.0 0.00 0.40 0.40 51 1010.7
20260506222948 59 322 1.0 2.0 0.00 0.40 0.40 51 1010.6
20260506222444 59 348 3.0 5.0 0.00 0.40 0.40 50 1010.5
20260506221941 59 313 1.0 2.0 0.00 0.40 0.40 49 1010.7
20260506221438 59 299 0.0 1.0 0.00 0.40 0.40 50 1010.8
20260506220936 59 297 1.0 2.0 0.00 0.40 0.40 50 1010.8
20260506220431 59 313 2.0 2.0 0.00 0.40 0.40 51 1010.9
20260506215928 59 321 1.0 3.0 0.00 0.40 0.40 51 1010.8
20260506215424 59 305 0.0 1.0 0.00 0.40 0.40 51 1010.6
20260506214920 59 351 4.0 5.0 0.00 0.40 0.40 50 1010.5
20260506214417 59 300 2.0 3.0 0.00 0.40 0.40 51 1010.7
20260506213915 59 310 1.0 3.0 0.00 0.40 0.40 51 1010.9
20260506213412 59 332 2.0 6.0 0.00 0.40 0.40 50 1010.5
20260506212910 59 312 3.0 3.0 0.00 0.40 0.40 49 1010.5
20260506212405 59 317 1.0 3.0 0.00 0.40 0.40 49 1010.5
20260506211900 60 348 2.0 3.0 0.00 0.40 0.40 49 1010.7
20260506211356 60 292 1.0 3.0 0.00 0.40 0.40 49 1010.4
20260506210854 60 329 3.0 3.0 0.00 0.40 0.40 49 1010.4
20260506210350 60 328 3.0 5.0 0.00 0.40 0.40 48 1010.0
20260506205848 60 299 0.0 0.0 0.00 0.40 0.40 49 1010.2
20260506205343 60 315 2.0 3.0 0.00 0.40 0.40 49 1010.2
20260506204840 60 310 3.0 8.0 0.00 0.40 0.40 49 1010.1
20260506204338 60 299 2.0 3.0 0.00 0.40 0.40 47 1010.3
20260506203835 60 330 5.0 6.0 0.00 0.40 0.40 48 1010.2
20260506203332 60 322 1.0 3.0 0.00 0.40 0.40 48 1010.6
20260506202829 60 285 0.0 2.0 0.00 0.40 0.40 49 1010.3
20260506202326 60 323 1.0 2.0 0.00 0.40 0.40 48 1010.5
20260506201822 60 315 1.0 2.0 0.00 0.40 0.40 46 1010.2
20260506201320 60 301 0.0 2.0 0.00 0.40 0.40 50 1010.3
20260506200817 60 19 3.0 5.0 0.00 0.40 0.40 48 1010.4
20260506200313 60 335 2.0 2.0 0.00 0.40 0.40 48 1010.4
20260506195809 60 306 1.0 2.0 0.00 0.40 0.40 50 1010.4
20260506195306 60 273 1.0 2.0 0.00 0.40 0.40 48 1010.5
20260506194804 60 347 3.0 3.0 0.00 0.40 0.40 47 1010.3
20260506194300 60 328 1.0 3.0 0.00 0.40 0.40 46 1010.4
20260506193758 60 327 5.0 6.0 0.00 0.40 0.40 47 1010.3
20260506193254 60 340 2.0 3.0 0.00 0.40 0.40 48 1010.4
20260506192750 60 303 3.0 5.0 0.00 0.40 0.40 45 1010.3
20260506192247 60 311 2.0 3.0 0.00 0.40 0.40 46 1009.9
20260506191744 60 320 2.0 5.0 0.00 0.40 0.40 46 1010.2
20260506191240 60 307 1.0 6.0 0.00 0.40 0.40 46 1010.1
20260506190738 61 327 3.0 3.0 0.00 0.40 0.40 47 1010.1
20260506190234 60 305 1.0 6.0 0.00 0.40 0.40 47 1010.1
20260506185731 61 334 3.0 3.0 0.00 0.40 0.40 50 1010.0
20260506185228 61 310 1.0 2.0 0.00 0.40 0.40 49 1009.9
20260506184725 61 303 1.0 5.0 0.00 0.40 0.40 49 1010.1
20260506184222 61 339 2.0 3.0 0.00 0.40 0.40 48 1010.1
20260506183719 60 313 0.0 3.0 0.00 0.40 0.40 49 1009.9
20260506183215 61 318 1.0 3.0 0.00 0.40 0.40 49 1010.0
20260506182712 61 321 1.0 5.0 0.00 0.40 0.40 47 1010.2
20260506182209 60 310 0.0 3.0 0.00 0.40 0.40 49 1010.1
20260506181707 60 355 2.0 3.0 0.00 0.40 0.40 53 1009.9
20260506181204 60 0 3.0 5.0 0.00 0.40 0.40 49 1010.2
20260506180701 60 315 2.0 7.0 0.00 0.40 0.40 51 1010.3
20260506180157 60 301 0.0 2.0 0.00 0.40 0.40 52 1010.5
20260506175653 60 343 3.0 5.0 0.00 0.40 0.40 51 1010.4
20260506175151 59 275 0.0 1.0 0.00 0.40 0.40 52 1010.1
20260506174649 58 339 4.0 5.0 0.00 0.40 0.40 49 1010.7
20260506174145 59 19 3.0 5.0 0.00 0.40 0.40 52 1010.5
20260506173643 58 308 1.0 1.0 0.00 0.40 0.40 51 1010.5
20260506173134 58 331 3.0 6.0 0.00 0.40 0.40 53 1010.6
20260506172631 58 296 0.0 3.0 0.00 0.40 0.40 53 1010.6
20260506172127 59 339 2.0 5.0 0.00 0.40 0.40 51 1010.7
20260506171625 59 309 1.0 5.0 0.00 0.40 0.40 54 1010.8
20260506171122 58 325 2.0 2.0 0.00 0.40 0.40 53 1010.7
20260506170619 58 330 2.0 5.0 0.00 0.40 0.40 52 1011.0
20260506170111 58 330 2.0 6.0 0.00 0.40 0.40 53 1010.7
20260506165610 58 322 5.0 7.0 0.00 0.40 0.40 54 1010.9
20260506165105 58 342 3.0 7.0 0.00 0.40 0.40 54 1010.9
20260506164603 59 298 0.0 2.0 0.00 0.40 0.40 54 1010.9
20260506164100 58 313 1.0 3.0 0.00 0.40 0.40 55 1010.8
20260506163555 58 342 2.0 6.0 0.00 0.40 0.40 55 1010.8
20260506163052 57 324 5.0 6.0 0.00 0.40 0.40 56 1010.6
20260506162548 57 342 3.0 3.0 0.00 0.40 0.40 58 1010.8
20260506162045 56 352 4.0 5.0 0.00 0.40 0.40 57 1010.9
20260506161543 56 315 4.0 7.0 0.00 0.40 0.40 57 1010.7
20260506161039 56 280 0.0 2.0 0.00 0.40 0.40 61 1010.8
20260506160537 56 268 1.0 3.0 0.00 0.40 0.40 60 1010.7
20260506160034 56 302 3.0 5.0 0.00 0.40 0.40 61 1010.8
20260506155532 55 285 0.0 2.0 0.00 0.40 0.40 63 1010.8
20260506153709 54 300 0.0 5.0 0.00 0.40 0.40 67 1010.5
20260506153207 53 311 0.0 2.0 0.00 0.40 0.40 66 1010.7
20260506152703 53 300 1.0 3.0 0.00 0.40 0.40 66 1010.9
20260506152201 54 354 2.0 2.0 0.00 0.40 0.40 68 1011.1
20260506151700 54 314 2.0 3.0 0.00 0.40 0.40 68 1010.9
20260506151156 53 292 0.0 2.0 0.00 0.40 0.40 69 1010.6
20260506150652 53 340 2.0 5.0 0.00 0.40 0.40 69 1010.4
20260506150150 52 296 0.0 2.0 0.00 0.40 0.40 71 1010.6
20260506145646 53 300 0.0 6.0 0.00 0.40 0.40 70 1010.3
20260506145143 52 301 0.0 2.0 0.00 0.40 0.40 72 1010.2
20260506144641 52 295 1.0 1.0 0.00 0.40 0.40 72 1010.2